ARIANE 3 DEB, 48347

Orbit data source: Space-Track

ARIANE 3 DEB, 48347 is space debris in HEO originally from a launch on Sat, 04 Aug 1984 UTC launched from the French Guiana (FRGUI). Debris objects in space refer to the collection of defunct objects orbiting the Earth. Examples of debris include non-operational satellites, rocket bodies, and fragments generated from explosions, collisions, or faulty payload assembly.

Loading next visibility...
Identifier
48347, 1984-081G
Orbit
HEO
Country
Flag of FRFR
Related business
Manufacturer
Unknown
Mission
Spacecraft
Bus & Motor
Unknown
Mass
Unknown
Launch date (UTC)
1984-08-04 (42 years ago)
Launch vehicle
Unknown
Launch site
French Guiana (FRGUI)
Object type
Payload
Rocket body
Debris
Shape & HBR
Unknown shape, 1.1 m
Radar Cross Section
Medium (>0.1 m² and <1 m²)

Expand to show TLE details & history
Last TLE update: 1 week ago

TLE from 1 week ago
0 ARIANE 3 DEB
1 48347U 84081G   26165.20918110 -.00000151  00000-0  00000-0 0  9997
2 48347   6.1503   0.4548 7081652   4.4254 359.5738  2.08078117 95583
Epoch: 2026-06-14T05:01Z
TLE epoch observation values (Epoch: 2026-06-14T05:01:13.247Z)
Latitude
0.00046°
Longitude
22.64159°
Altitude
1,224.335 km
Speed
9.459 km/s
True Right ascension
00h 01m 50s
True Declination
0° 00' 02"
Sunlit
Object was in daylight at epoch
Visualization orbit readout
Latitude
Unknown
Longitude
Unknown
Altitude
Unknown
Speed
Unknown
Apparent Right ascension
Unknown
Apparent Declination
Unknown
Sunlit
N/A
Visualization observer readout
Local Sidereal Time
21:36:50
Azimuth
Unknown
Elevation
Unknown
Doppler factor
Unknown
Orbital elements
Apogee altitude
37,900.464 km
Perigee altitude
1,186.726 km
Semi-major axis
25,921.732 km
Eccentricity
0.70817
Inclination
6.1503°
RAAN
0.4548°
Arg. of periapsis
4.4254°
True anomaly
356.46862°
Mean anomaly
359.5738°
Eccentric anomaly
358.53997°
Mean motion
0.52005 °/min
Orbital period
692.24 mins
BSTAR
0
Loading maneuver chart data...
Computing Atmospheric mass density...
Loading historical data...
Loading historical data...
Loading historical data...
Loading historical data...
Loading historical data...
Loading historical data...
Loading historical data...

Documentation

Showing up to 5 results
|